Regional Weather Roundup
Issued by NWS Sterling, VA

Home | Current Version | Previous Version | Text Only | Print | Product List | Glossary Off
Versions: 1 2 3 4 5 6 7 8 9 10 11 12 13 14 15 16 17 18 19 20 21 22 23 24 25 26 27

000
ASUS41 KLWX 280410
RWRLWX

REGIONAL WEATHER ROUNDUP
NATIONAL WEATHER SERVICE BALTIMORE MD/WASHINGTON DC
1200 AM EDT THU APR 28 2016

Note: "FAIR" indicates few or no clouds below 12,000 feet
with no significant weather and/or obstructions to visibility.
 TC=TEMPERATURE CELSIUS

 * =Non NWS site. Station does not report precipitation (e.g. rain,
    snow, etc.), thunder, or fog.

DCZ001-MDZ009-015-VAZ040>042-051-053>054-280500-
WASHINGTON METRO

CITY           SKY/WX    TMP DP  RH WIND       PRES   REMARKS
WASHINGTON NAT MOCLDY    54  49  83 S7        29.94F
DULLES         CLOUDY    53  49  86 S5        29.93F
ANDREWS AFB    PTCLDY    51  49  91 S2        29.92F
FT BELVOIR     MOCLDY    51  49  92 CALM      29.93F
QUANTICO       CLOUDY    55  51  86 VRB3      29.94F
COLLEGE PARK*  CLOUDY    52  46  82 S3        29.93S
LEESBURG*      MOCLDY    55  54  94 S5        29.93F
MANASSAS*      CLOUDY    54  54 100 CALM      29.94F
GAITHERSBURG*  CLEAR     52  46  82 SE5       29.96S

$$

MDZ006>007-011-014-280500-
BALTIMORE METRO

CITY           SKY/WX    TMP DP  RH WIND       PRES   REMARKS
BWI AIRPORT    MOCLDY    52  49  89 S3        29.93S
MD SCIENCE CTR   N/A     54  47  77 MISG      29.93F
MARTIN STATE   PTCLDY    54  50  87 CALM      29.94F
ANNAPOLIS      CLOUDY    53  49  86 S5        29.93S
FORT MEADE*    CLOUDY    52  48  87 CALM      29.96S

$$

MDZ012-015-019>023-280500-
MARYLAND EASTERN SHORE

CITY           SKY/WX    TMP DP  RH WIND       PRES   REMARKS
OCEAN CITY     CLOUDY    51  46  83 E3        29.93
SALISBURY      CLOUDY    49  46  90 SW3       29.93F
CAMBRIDGE*       N/A     50  46  87 CALM      29.93F
EASTON*        CLOUDY   N/A N/A N/A S5        29.97S

$$

MDZ017>025-280500-
SOUTHERN MARYLAND

CITY           SKY/WX    TMP DP  RH WIND       PRES   REMARKS
PATUXENT RIVER CLOUDY    54  49  83 CALM      29.93F
ST INIGOES     CLOUDY    54  51  90 CALM      29.91F
LEONARDTOWN*   CLOUDY    52  48  87 CALM      29.94F

$$

MDZ003>005-280500-
NORTH CENTRAL MARYLAND

CITY           SKY/WX    TMP DP  RH WIND       PRES   REMARKS
FREDERICK*     CLEAR     50  50 100 CALM      29.95F FOG
HAGERSTOWN APT CLOUDY    53  49  86 CALM      29.91F FOG
WESTMINSTER*   CLEAR     48  46  93 CALM      29.92F FOG

$$

MDZ501>502-280500-
WESTERN MARYLAND

CITY           SKY/WX    TMP DP  RH WIND       PRES   REMARKS
OAKLAND*       CLOUDY    52  50  93 E3        29.90F
CUMBERLAND*    CLOUDY    54  50  87 CALM      29.93F

$$

VAZ025>031-280500-
SHENANDOAH VALLEY

CITY           SKY/WX    TMP DP  RH WIND       PRES   REMARKS
WINCHESTER*    CLOUDY    54  52  94 CALM      29.91F FOG
FRONT ROYAL*   CLOUDY    54  52  94 CALM      29.91S
LURAY*         FAIR      54  54 100 NE3       29.91S FOG
NEW MARKET*    MOCLDY    54  52  94 CALM      29.91S
STAUNTON*      CLOUDY    60  60 100 CALM      29.92F FOG
WAYNESBORO*    CLOUDY    56  55  96 MISG      29.91F

$$

WVZ021-048>050-054>055-280500-
EASTERN WEST VIRGINIA PANHANDLE

CITY           SKY/WX    TMP DP  RH WIND       PRES   REMARKS
MARTINSBURG    MOCLDY    50  48  93 CALM      29.91S FOG
PETERSBURG*    CLOUDY    58  56  95 CALM      29.91F

$$

VAZ036>039-050-280500-
CENTRAL FOOTHILLS

CITY           SKY/WX    TMP DP  RH WIND       PRES   REMARKS
CHARLOTTESVILL LGT RAIN  57  54  89 NE6       29.92F
CULPEPER*      CLOUDY    56  54  91 CALM      29.94F
ORANGE*        RAIN      55  55 100 NE3       29.95F
GORDONSVILLE*  CLOUDY    55  55 100 CALM      29.92F
WARRENTON*     CLOUDY    55  49  78 CALM      29.93F

$$

VAZ055>057-280500-
NORTH AND CENTRAL PIEDMONT

CITY           SKY/WX    TMP DP  RH WIND       PRES   REMARKS
FREDERICKSBRG* CLOUDY    55  55  99 CALM      29.93F
STAFFORD*      CLOUDY    53  50  90 CALM      29.97F

$$

NCZ024-NYZ072-PAZ021-071-VAZ022-071-280500-
OTHER REGIONAL OBSERVATIONS

CITY           SKY/WX    TMP DP  RH WIND       PRES   REMARKS
NEW YORK CITY  CLEAR     53  43  68 W5        29.94R
PHILADELPHIA   CLOUDY    51  45  79 W7        29.96R
PITTSBURGH     CLOUDY    56  33  42 N8        29.88S
ROANOKE        MOCLDY    65  64  97 SE7       29.91R
RICHMOND       CLOUDY    56  55  97 N7        29.91F FOG
RALEIGH        TSTM      66  64  94 NE9       29.89R FOG

$$

ANZ530>537-280500-
MARINE OBSERVATIONS

STATION/POSITION TIME  TEMP    WIND        PRES
                       AIR SEA DIR/SP/G
                 (UTC) (F)     (DEG/KT/KT) (MB)
THOMAS PT LIGHT  0400   53 58  180/  7/  8 1014.9F
BALT KEY BRIDGE  0300   54                 1013.5R
COVE POINT       0300   53                 1014.3F
LEWISETTA        0300   56 62              1013.7R
SOLOMONS ISLAND  0300   54 61                N/A
PINEY POINT      0300           90/  5/  6   N/A

$$





USA.gov is the U.S. government's official web portal to all federal, state and local government web resources and services.